NOAA 16 DEB, 41532

Orbit data source: Space-Track

NOAA 16 DEB, 41532 is space debris in SSO originally from a launch on Thu, 21 Sep 2000 UTC launched from the Air Force Western Test Range (AFWTR). Debris objects in space refer to the collection of defunct objects orbiting the Earth. Examples of debris include non-operational satellites, rocket bodies, and fragments generated from explosions, collisions, or faulty payload assembly.

Loading next visibility...
Identifier
41532, 2000-055NG
Orbit
SSO
Country
Flag of USUS
Related business
Manufacturer
Unknown
Mission
Spacecraft
Bus & Motor
Unknown
Mass
Unknown
Launch date (UTC)
2000-09-21 (25 years ago)
Launch vehicle
Unknown
Launch site
Air Force Western Test Range (AFWTR)
Object type
Payload
Rocket body
Debris
Shape & HBR
Unknown shape, 0.1 m
Radar Cross Section
Small (<0.1 m²)

Expand to show TLE details & history
Last TLE update: 21 hours ago

TLE from 21 hours ago
0 NOAA 16 DEB
1 41532U 00055NG  25340.22243998  .00008056  00000-0  29886-2 0  9992
2 41532  98.7410  74.2317 0008963  14.0105 346.1325 14.32437614498658
Epoch: 2025-12-06T05:20Z
TLE epoch observation values (Epoch: 2025-12-06T05:20:18.814Z)
Latitude
-0.00004°
Longitude
-81.09996°
Altitude
780.292 km
Speed
7.467 km/s
True Right ascension
04h 56m 55s
True Declination
0° 00' 00"
Sunlit
Object was in full shadow at epoch
Visualization orbit readout
Latitude
Unknown
Longitude
Unknown
Altitude
Unknown
Speed
Unknown
Apparent Right ascension
Unknown
Apparent Declination
Unknown
Sunlit
N/A
Visualization observer readout
Local Sidereal Time
00:11:26
Azimuth
Unknown
Elevation
Unknown
Doppler factor
Unknown
Orbital elements
Apogee altitude
787.154 km
Perigee altitude
774.321 km
Semi-major axis
7,158.875 km
Eccentricity
0.0009
Inclination
98.741°
RAAN
74.2317°
Arg. of periapsis
14.0105°
True anomaly
346.10786°
Mean anomaly
346.1325°
Eccentric anomaly
346.12018°
Mean motion
3.58324 °/min
Orbital period
100.47 mins
BSTAR
0.0029886
Loading maneuver chart data...
Computing Atmospheric mass density...
Loading historical data...
Loading historical data...
Loading historical data...
Loading historical data...
Loading historical data...
Loading historical data...
Loading historical data...

Documentation

Showing up to 5 results
|